Location: Bonneuil
(46.1010°N, 2.9693°E)
Time: 12:35:54
(UTC+00:00)

Cosmos 2333 Rocket - Pass Details

Date: 09 April 2020
Orbit: 841 x 860 km, 70.8° (Epoch: 26 May)

Event Time Altitude Azimuth Distance (km) Brightness Sun altitude
Rises 23:35:35 0° 338° (NNW) 3,407 6.3 -35.8°
Reaches altitude 10° 23:38:18 10° 348° (NNW) 2,470 5.4 -35.8°
Enters shadow 23:42:30 31° 34° (NE) 1,439 3.7 -35.8°
